Retour au catalogue

THAICOM 5

ActifCommunicationsGEO
NORAD 29163·PAYLOAD·🇹🇭 Thailand

Lancé May 27, 2006 depuis Guiana Space Centre

Loading…

TLE

FraisSource: Space-Track

Époque: Sep 14, 2026, 12:29 UTC

1 29163U 06020B   26257.52058617  .00000047  00000-0  00000-0 0  9996
2 29163   6.2381  71.6045 0006164 141.6630 216.3054  0.99202421 74139

Suivez THAICOM 5 en temps réel avec AllMySat

Download on the App Store